Location: *
(42.7470°S, 106.2410°E)
Time: 05:12:52
(UTC+00:00)

Daily predictions for brighter satellites

Satellite Brightness Start Highest point End
(mag) Time Altitude Azimuth Time Altitude Azimuth Time Altitude Azimuth
STARLINK-1286 3.7 09:54:18 10° NW 09:58:32 90° S 10:02:48 10° SE
COSMOS 2428 3.0 09:54:03 10° N 09:59:35 51° ENE 10:05:11 10° SE
ATLAS 5 CENTAUR R/B 3.9 09:58:08 10° NNE 10:03:37 24° ENE 10:08:55 10° ESE
Cosmos 2123 Rocket 4.0 09:59:17 10° S 10:05:32 65° E 10:11:44 10° NNE
Cosmos 2228 Rocket 3.1 10:02:30 10° S 10:07:07 76° E 10:11:36 10° NNE
STARLINK-29 3.9 10:04:51 10° SW 10:07:53 32° SSE 10:10:55 10° E
Cosmos 405 3.7 10:05:54 10° S 10:09:09 31° ESE 10:12:21 10° NE
Cosmos 2237 Rocket 3.3 10:07:05 10° NNE 10:11:33 24° ENE 10:16:03 10° SE
STARLINK-1306 3.9 10:09:01 10° WNW 10:13:16 70° SSW 10:17:33 10° SE
STARLINK-1299 4.0 10:09:10 10° WNW 10:13:26 64° SSW 10:17:46 10° SE
CZ-4B R/B 4.0 10:08:56 10° SE 10:13:46 31° E 10:18:38 10° NNE
STARLINK-37 4.4 10:10:19 10° NNW 10:13:49 34° NE 10:17:10 11° ESE
SL-16 R/B 4.3 10:10:16 10° W 10:14:31 21° SW 10:18:50 10° S
Cosmos 1535 Rocket 4.5 10:08:31 10° N 10:14:45 80° E 10:20:59 10° S
STARLINK-36 4.4 10:11:37 10° NNW 10:15:03 32° NE 10:18:16 11° ESE
H-2A R/B 3.9 10:12:17 10° SE 10:15:34 25° E 10:18:49 10° NNE
STARLINK-1281 3.8 10:11:39 10° WNW 10:15:50 72° SW 10:19:59 10° SE
USA 234 3.8 10:10:06 10° SE 10:16:31 55° SSW 10:22:55 10° WNW
STARLINK-68 4.2 10:13:21 10° NNW 10:16:53 37° NE 10:20:07 12° ESE
Cosmos 1743 Rocket 4.2 10:12:41 10° NNW 10:17:02 61° W 10:21:30 10° S
ADEOS Rocket 3.8 10:10:06 10° NNE 10:17:40 83° WNW 10:25:37 10° SSW
STARLINK-63 4.3 10:15:02 10° NNW 10:18:35 36° NE 10:21:44 13° ESE
Cosmos 1484 Rocket 4.1 10:15:43 10° S 10:19:23 40° WSW 10:22:57 10° NW
STARLINK-35 4.3 10:16:29 10° NNW 10:20:00 36° NE 10:23:03 13° ESE
STARLINK-1310 3.9 10:16:39 10° WNW 10:20:50 66° SSW 10:24:46 12° SE
STARLINK-51 4.2 10:18:15 10° NNW 10:21:48 37° NE 10:24:49 14° ESE
Okean O Rocket 2.4 10:18:06 10° SSE 10:22:07 32° E 10:26:07 10° NNE
Cosmos 158 Rocket 4.2 10:18:03 10° N 10:23:01 51° ENE 10:28:12 10° SSE
STARLINK-30 4.2 10:19:51 10° NNW 10:23:26 38° NE 10:26:23 14° ESE
Sich 1 3.3 10:19:24 10° NNE 10:23:38 49° E 10:27:58 10° SSE
STARLINK-72 4.1 10:21:40 10° NNW 10:25:17 40° NE 10:28:12 15° ESE
STARLINK-1319 4.0 10:21:39 10° WNW 10:25:49 61° SSW 10:29:33 13° SE
Meteor 2-20 Rocket 4.5 10:20:05 10° S 10:26:18 62° E 10:32:25 10° NNE
Cosmos 1346 Rocket 2.9 10:22:37 10° NNW 10:26:35 81° W 10:30:38 10° S
SL-16 R/B 4.0 10:26:05 10° ENE 10:27:45 11° E 10:28:17 11° E
Cosmos 2112 Rocket 4.1 10:22:57 10° N 10:28:09 57° ENE 10:33:23 10° SSE
STARLINK-1028 4.5 10:24:25 10° NNW 10:28:13 35° NE 10:31:12 15° ESE
STARLINK-59 3.9 10:24:48 10° NNW 10:28:29 45° NE 10:31:18 16° ESE
PSLV R/B 4.0 10:24:41 10° SSE 10:28:55 87° WSW 10:33:01 10° NNW
Starlink 7 placeholder 3.5 10:26:35 10° WSW 10:29:33 52° NW 10:32:22 10° NE
Shenzhou-11 Module 1.7 10:27:28 10° WNW 10:30:03 68° NNE 10:31:43 19° E
STARLINK-56 4.0 10:26:27 10° NNW 10:30:08 44° NE 10:32:52 17° ESE
STARLINK-1277 4.1 10:26:40 10° WNW 10:30:47 57° SSW 10:34:19 14° SE
STARLINK-73 3.9 10:28:06 10° NNW 10:31:48 46° NE 10:34:28 17° ESE
Cosmos 2333 Rocket 2.4 10:26:21 10° NNW 10:32:07 77° WSW 10:37:58 10° SSE
SMAP 4.0 10:28:46 10° SE 10:32:48 27° E 10:36:48 10° NNE
STARLINK-1021 4.4 10:29:17 10° NNW 10:33:11 39° NE 10:35:58 17° ESE
Cosmos 1934 Rocket 4.3 10:26:54 10° NNW 10:33:14 73° W 10:39:42 10° S
STARLINK-38 3.9 10:29:44 10° NNW 10:33:27 48° NE 10:36:04 18° ESE
STARLINK-65 3.8 10:31:24 10° NNW 10:35:08 49° NE 10:37:42 19° ESE
STARLINK-1276 4.2 10:31:41 10° WNW 10:35:47 53° SSW 10:39:06 15° SE
Cosmos 2278 Rocket 2.4 10:31:27 10° SSW 10:36:58 46° ESE 10:42:25 10° NE
STARLINK-24 3.8 10:33:01 10° NW 10:37:00 56° NE 10:39:45 19° ESE
STARLINK-64 4.5 10:33:52 10° W 10:37:11 33° SSW 10:39:47 15° SE
STARLINK-25 3.7 10:33:36 10° NNW 10:37:13 49° NE 10:39:34 20° ESE
STARLINK-53 3.7 10:33:39 10° NW 10:37:28 55° NE 10:40:02 19° ESE
Cosmos 1844 Rocket 4.3 10:32:38 10° SW 10:37:53 39° WNW 10:43:06 10° N
STARLINK-1019 4.2 10:34:11 10° NNW 10:38:08 43° NE 10:40:45 19° ESE
Meteor 1-10 Rocket 4.2 10:32:37 10° S 10:38:21 83° E 10:44:05 10° N
STARLINK-1305 4.3 10:36:43 10° WNW 10:40:48 49° SSW 10:43:54 17° SE
STARLINK-1012 4.1 10:39:04 10° NNW 10:43:05 47° NE 10:45:32 21° ESE
STARLINK-52 3.2 10:40:54 10° SW 10:44:08 51° SSE 10:45:57 22° E
SJ-7 4.3 10:40:21 10° SSE 10:44:25 73° ENE 10:48:26 10° N
Cosmos 1605 Rocket 4.0 10:38:14 10° N 10:44:29 90° E 10:50:43 10° S
BREEZE-M DEB (TANK) 3.6 10:41:17 10° WSW 10:45:05 77° SSE 10:59:30 10° ENE
STARLINK-1262 4.4 10:41:44 10° WNW 10:45:48 46° SSW 10:48:41 18° SE
YAOGAN 6 3.7 10:46:10 23° ESE 10:47:02 25° E 10:50:07 10° NNE
Cosmos 2056 Rocket 3.7 10:43:16 10° S 10:48:32 51° ESE 10:53:38 10° NE
Cosmos 2360 Rocket 4.2 10:44:11 10° WNW 10:48:47 25° SW 10:53:25 10° S
STARLINK-1338 4.5 10:46:57 10° SW 10:50:05 26° SSE 10:50:56 24° SE
Cosmos 1666 Rocket 3.5 10:46:17 10° N 10:50:38 66° E 10:55:01 10° SSE
STARLINK-1300 4.5 10:46:44 10° W 10:50:46 43° SSW 10:53:27 19° SE
FALCON 9 DEB 3.6 10:48:11 10° SW 10:51:36 43° SSE 10:52:53 29° E
H-2A R/B 4.1 10:48:41 10° S 10:52:28 33° WSW 10:56:04 10° NW
Cosmos 1633 Rocket 3.1 10:48:13 10° N 10:52:35 57° E 10:57:00 10° SSE
STARLINK-1026 3.8 10:48:55 10° NW 10:53:02 57° NE 10:55:07 27° ESE
STARLINK-50 3.6 10:49:14 10° NW 10:53:18 72° NE 10:55:25 27° ESE
NOAA 6 4.0 10:49:19 10° SSE 10:54:32 90° E 10:59:41 10° NNW
STARLINK-1371 4.3 10:52:36 10° SW 10:55:48 28° SSE 10:56:25 26° SE
CZ-2C R/B 3.9 10:58:14 21° SE 10:58:14 21° SE 11:01:36 10° SSE
STARLINK-1013 3.7 10:53:49 10° NW 10:57:57 62° NE 10:59:52 30° ESE
Cosmos 1818 3.5 10:53:32 10° NNW 10:58:55 71° ENE 11:02:42 20° SE
STARLINK-1341 4.3 10:55:42 10° SW 10:58:58 29° SSE 10:59:29 28° SE
ALOS 4.4 10:55:46 10° SSW 10:59:40 26° WSW 11:03:31 10° WNW
Cosmos 1862 4.3 10:56:43 10° NNW 11:00:37 48° WSW 11:04:37 10° S
STARLINK-1374 4.3 10:58:05 10° SW 11:01:22 29° SSE 11:01:45 29° SE
STARLINK-1009 3.6 10:58:46 10° NW 11:02:55 68° NE 11:04:39 34° ESE
STARLINK-1320 4.0 11:00:59 10° SW 11:03:40 29° SSE 11:03:40 29° SSE
STARLINK-1322 4.0 11:01:18 10° SW 11:03:58 29° SSE 11:03:58 29° SSE
STARLINK-1339 4.2 11:01:04 10° SW 11:04:24 31° SSE 11:04:41 30° SSE
STARLINK-1324 4.0 11:01:39 10° SW 11:04:18 29° SSE 11:04:18 29° SSE
STARLINK-1294 4.0 11:02:01 10° SW 11:04:35 29° SSE 11:04:35 29° SSE
STARLINK-1261 4.0 11:02:19 10° SW 11:04:57 29° SSE 11:04:57 29° SSE
STARLINK-1325 4.0 11:02:37 10° SW 11:05:15 29° SSE 11:05:15 29° SSE
STARLINK-1377 4.2 11:02:35 10° SW 11:05:52 31° SSE 11:06:01 31° SSE
STARLINK-1333 4.0 11:03:01 10° SW 11:05:38 30° SSE 11:05:38 30° SSE
STARLINK-1334 4.0 11:03:20 10° SW 11:05:56 30° SSE 11:05:56 30° SSE
SL-4 R/B 3.2 11:02:50 10° WSW 11:06:23 39° NW 11:10:09 10° NNE
STARLINK-1326 4.0 11:03:40 10° SW 11:06:15 30° SSE 11:06:15 30° SSE
STARLINK-1323 4.0 11:04:00 10° SW 11:06:35 30° SSE 11:06:35 30° SSE
STARLINK-1349 4.0 11:04:21 10° SW 11:06:55 30° SSE 11:06:55 30° SSE
STARLINK-1336 4.0 11:04:40 10° SW 11:07:13 30° SSE 11:07:13 30° SSE
STARLINK-1015 3.6 11:03:43 10° NW 11:07:54 74° NE 11:09:26 38° ESE
STARLINK-1331 4.0 11:05:03 10° SW 11:07:36 30° SSE 11:07:36 30° SSE
STARLINK-1344 4.0 11:05:24 10° SW 11:07:56 30° S 11:07:56 30° S
STARLINK-1343 4.0 11:05:41 10° SW 11:08:12 30° S 11:08:12 30° S
STARLINK-1353 4.2 11:05:18 10° SW 11:08:36 32° SSE 11:08:37 32° SSE
Cosmos 1680 Rocket 4.2 11:03:44 10° NW 11:08:56 54° WSW 11:14:09 10° SSE
STARLINK-1346 4.0 11:06:06 10° SW 11:08:31 29° S 11:08:31 29° S
STARLINK-1328 4.0 11:06:21 10° SW 11:08:51 30° S 11:08:51 30° S
STARLINK-1354 4.0 11:06:41 10° SW 11:09:10 30° S 11:09:10 30° S
STARLINK-1347 4.0 11:07:03 10° SW 11:09:32 30° S 11:09:32 30° S
STARLINK-1357 4.0 11:07:22 10° SW 11:09:50 30° S 11:09:50 30° S
STARLINK-1335 4.0 11:07:45 10° SW 11:10:12 30° S 11:10:12 30° S
STARLINK-1327 4.0 11:08:02 10° SW 11:10:29 30° S 11:10:29 30° S
STARLINK-1340 4.0 11:08:22 10° SW 11:10:48 30° S 11:10:48 30° S
STARLINK-1356 4.0 11:08:43 10° SW 11:11:08 30° S 11:11:08 30° S
Cosmos 2219 Rocket 3.4 11:06:31 10° NW 11:11:52 41° WSW 11:17:17 10° SSE
STARLINK-1345 4.0 11:09:02 10° SW 11:11:27 30° S 11:11:27 30° S
ATLAS 2AS CENTAUR R/B 3.6 11:06:53 10° SSW 11:12:19 27° SE 11:13:30 25° SE
STARLINK-1355 4.1 11:09:23 10° SW 11:11:47 30° S 11:11:47 30° S
STARLINK-1375 4.1 11:09:00 10° SW 11:12:20 34° SSE 11:12:20 34° SSE
STARLINK-1321 4.1 11:09:44 10° SW 11:12:07 30° S 11:12:07 30° S
STARLINK-1016 3.5 11:08:41 10° NW 11:12:52 81° NE 11:14:13 42° ESE
STARLINK-1358 4.1 11:10:03 10° SW 11:12:25 30° S 11:12:25 30° S
STARLINK-1332 4.1 11:10:27 10° SW 11:12:48 30° S 11:12:48 30° S
STARLINK-1348 4.1 11:10:44 10° SW 11:13:06 31° S 11:13:06 31° S
STARLINK-1330 4.1 11:11:03 10° SW 11:13:24 30° S 11:13:24 30° S
STARLINK-1350 4.1 11:10:45 10° SW 11:13:53 34° SSE 11:13:53 34° SSE
STARLINK-1363 4.1 11:11:28 10° SW 11:13:47 30° S 11:13:47 30° S
STARLINK-1337 4.1 11:11:44 10° SW 11:14:03 30° S 11:14:03 30° S
STARLINK-1342 4.1 11:12:04 10° SW 11:14:23 30° S 11:14:23 30° S
Cosmos 1812 3.7 11:11:31 10° SSW 11:15:20 49° W 11:19:04 10° NNW
STARLINK-1364 4.1 11:12:23 10° SW 11:14:41 30° S 11:14:41 30° S
STARLINK-1376 4.1 11:12:45 10° SW 11:15:02 30° S 11:15:02 30° S
STARLINK-1360 4.1 11:13:04 10° SW 11:15:20 30° S 11:15:20 30° S
STARLINK-1361 4.1 11:13:23 10° SW 11:15:39 30° S 11:15:39 30° S
STARLINK-81 3.4 11:12:42 10° WNW 11:16:36 79° SW 11:17:38 48° SE
STARLINK-1367 4.1 11:13:46 10° SW 11:15:56 30° S 11:15:56 30° S
STARLINK-1352 4.1 11:13:29 10° SW 11:16:32 34° SSE 11:16:32 34° SSE
STARLINK-1366 4.1 11:14:08 10° SW 11:16:23 30° S 11:16:23 30° S
STARLINK-1008 3.5 11:13:39 10° NW 11:17:51 88° NE 11:19:00 47° SE
STARLINK-54 3.5 11:14:02 10° WNW 11:17:55 71° SW 11:18:55 47° SE
Cosmos 1452 Rocket 4.1 11:14:01 10° S 11:18:43 35° ESE 11:18:43 35° ESE
STARLINK-77 3.5 11:15:29 10° WNW 11:19:22 75° SW 11:20:16 50° SE
STARLINK-1368 4.1 11:16:16 10° SW 11:19:13 35° S 11:19:13 35° S
Cosmos 1238 Rocket 3.0 11:16:28 10° N 11:21:05 76° W 11:24:03 17° S
Cosmos 2100 Rocket 3.9 11:15:14 10° N 11:21:25 71° E 11:27:37 10° SSE
Cosmos 1420 Rocket 4.1 11:16:52 10° SSW 11:22:09 53° ESE 11:25:32 21° NE
STARLINK-1369 4.2 11:19:04 10° SW 11:21:56 35° S 11:21:56 35° S
Helios 1A Rocket 2.9 11:21:53 50° ESE 11:22:34 59° ENE 11:26:34 10° N
STARLINK-1014 3.6 11:18:37 10° NW 11:22:51 86° SW 11:23:50 52° SE
Cosmos 1461 2.7 11:19:52 10° SW 11:23:50 78° WNW 11:26:03 24° NNE
STARLINK-79 3.6 11:20:20 10° WNW 11:24:12 69° SW 11:24:54 54° SSE
STARLINK-1372 4.2 11:21:54 10° SW 11:24:41 36° S 11:24:41 36° S
STARLINK-78 3.6 11:21:49 10° WNW 11:25:40 67° SSW 11:26:17 55° SSE
Cosmos 1980 3.8 11:21:26 10° NNW 11:27:07 77° WSW 11:31:16 20° SSE
Envisat 2.9 11:22:01 10° SSE 11:27:13 86° ENE 11:32:20 10° NNW
Lacrosse 5 rocket 1.8 11:23:06 10° NNW 11:27:14 46° NE 11:27:19 46° NE
STARLINK-57 3.7 11:23:35 10° WNW 11:27:25 62° SSW 11:27:59 54° S
STARLINK-1010 3.7 11:23:15 10° WNW 11:27:33 76° SW 11:28:27 53° SE
STARLINK-1025 3.6 11:23:38 10° WNW 11:27:49 79° SW 11:28:35 58° SE
STARLINK-1378 4.2 11:25:21 10° SW 11:28:05 36° S 11:28:05 36° S
STARLINK-49 3.6 11:25:10 10° WNW 11:29:00 63° SSW 11:29:30 56° S
STARLINK-27 3.6 11:26:35 10° WNW 11:30:23 61° SSW 11:30:48 57° S
STARLINK-1329 4.3 11:27:28 10° SW 11:30:05 35° S 11:30:05 35° S
STARLINK-1379 4.3 11:27:35 10° SW 11:30:11 35° S 11:30:11 35° S
STARLINK-74 3.7 11:28:16 10° WNW 11:32:05 60° SSW 11:32:26 57° S
STARLINK-1017 3.7 11:28:34 10° WNW 11:32:46 74° SW 11:33:19 62° SSE
STARLINK-39 3.7 11:29:49 10° WNW 11:33:38 58° SSW 11:33:54 56° S
STARLINK-1365 4.3 11:31:21 10° SW 11:33:57 37° SSW 11:33:57 37° SSW
STARLINK-1362 4.3 11:31:20 10° SW 11:33:59 36° SSW 11:33:59 36° SSW
STARLINK-31 3.7 11:31:26 10° WNW 11:35:13 56° SSW 11:35:26 55° SSW
Meteor 1-20 Rocket 4.2 11:29:36 10° N 11:35:18 67° E 11:39:07 22° SSE
STARLINK-69 3.9 11:33:12 10° WNW 11:36:56 51° SSW 11:37:06 50° SSW
Cosmos 2297 4.2 11:31:54 10° SSW 11:36:30 39° SE 11:36:30 39° SE
STARLINK-1373 4.4 11:33:47 10° SW 11:36:15 35° SSW 11:36:15 35° SSW
STARLINK-1023 3.7 11:33:33 10° WNW 11:37:43 68° SW 11:38:05 64° S
STARLINK-21 3.9 11:34:40 10° WNW 11:38:26 53° SSW 11:38:30 52° SSW
Feng Yun 1-1 Rocket 4.1 11:35:57 33° SSE 11:38:29 69° ENE 11:43:55 10° N
Cosmos 2061 Rocket 3.9 11:32:43 10° N 11:38:55 62° E 11:43:27 19° SSE
BREEZE-M DEB (TANK) 4.4 11:20:32 10° NW 11:39:15 61° NNE 11:41:08 44° E
Cosmos 1470 Rocket 3.6 11:35:20 10° N 11:39:52 80° W 11:42:02 31° S
STARLINK-45 4.0 11:36:32 10° WNW 11:40:15 47° SSW 11:40:17 47° SSW
STARLINK-70 4.1 11:38:12 10° WNW 11:41:53 48° SSW 11:41:53 48° SSW
STARLINK-1007 3.8 11:38:36 10° WNW 11:42:46 63° SSW 11:42:56 62° SSW
STARLINK-76 4.1 11:39:38 10° WNW 11:43:14 48° SW 11:43:14 48° SW
STARLINK-29 4.5 11:40:58 10° WSW 11:44:00 35° NW 11:44:00 35° NW
STARLINK-23 4.2 11:41:19 10° WNW 11:44:50 47° SW 11:44:50 47° SW
Cosmos 371 Rocket 4.0 11:40:33 10° SSW 11:43:48 39° S 11:43:48 39° S
ATLAS CENTAUR R/B 4.1 11:42:58 10° S 11:43:21 11° S 11:43:21 11° S
STARLINK-32 4.2 11:42:54 10° WNW 11:46:20 45° SW 11:46:20 45° SW
STARLINK-71 4.3 11:42:58 10° WNW 11:46:54 46° SSW 11:46:54 46° SSW
Cosmos 1441 Rocket 3.6 11:43:22 10° NNW 11:46:40 60° NNW 11:46:40 60° NNW
STARLINK-1048 4.0 11:43:37 10° WNW 11:47:42 58° SW 11:47:42 58° SW
ATLAS 5 CENTAUR R/B 2.7 11:40:46 10° NW 11:47:59 77° SW 11:51:07 35° SSE
Cosmos 2016 Rocket 3.9 11:42:10 10° N 11:48:25 73° E 11:53:37 16° SSE
STARLINK-40 4.3 11:44:54 10° WNW 11:48:17 44° SW 11:48:17 44° SW
Cosmos 1864 Rocket 4.4 11:43:18 10° N 11:49:21 61° E 11:50:33 51° SE
STARLINK-44 4.4 11:46:11 10° WNW 11:49:28 42° SW 11:49:28 42° SW
Cosmos 2173 Rocket 4.1 11:43:57 10° NNW 11:50:15 76° W 11:56:31 10° S
SL-24 R/B - RUBIN 2 3.6 11:45:48 10° NW 11:50:54 86° WSW 11:51:05 82° S
STARLINK-1049 4.2 11:48:37 10° WNW 11:52:28 53° SW 11:52:28 53° SW
Cosmos 1862 Rocket 4.5 11:48:33 10° SSW 11:52:59 50° W 11:57:20 10° NNW
